Flag for Germany Weather past 2 weeks in Sonneberg, Thuringia, Germany

Now
50 °F

Low clouds.


Feels Like: 50 °F
Forecast: 43 / 57 °F
Wind: 2 mph from West

Location: Hof

Current Time: Sep 4, 2015 at 6:57:43 AM

Latest Report: Sep 4, 2015 at 5:00 AM


Visibility: 6 mi

Pressure: 29.97 "Hg

Humidity: 94%

Dew point: 48 °F

Location of SonnebergLocation

Historic Weather in Sonneberg — Graph

°F

Sonneberg temperature yesterday

Maximum temperature yesterday: 59 °F (at 5:00 PM)
Minimum temperature yesterday: 52 °F (at 7:00 AM)
Average temperature yesterday: 55 °F

Past Weeks' High & Low Weather Summary

 TemperatureHumidityPressure
High89 °F (Aug 31, 4:00 PM)100% (Aug 20, 7:00 AM)30.31 "Hg (Aug 20, 7:00 AM)
Low47 °F (Aug 22, 6:00 AM)33% (Aug 31, 4:00 PM)29.66 "Hg (Aug 24, 7:00 PM)
Average64 °F72%30.01 "Hg
* Reported Aug 20 5:00 AM — Sep 4 5:00 AM, Sonneberg, Weather by CustomWeather, © 2015

Note: Actual official high and low records may vary slightly from our data, if they occured in-between our weather recording intervals... More about our weather records

Advertising

Sonneberg weather history for previous 24 hours

 ConditionsComfort  
Time TempWeatherWind HumidityBarometerVisibility
5:00 AM
Fri, Sep 4
50 °FLow clouds.2 mph94%29.97 "Hg6 mi
4:00 AM49 °FOvercast.1 mph95%29.98 "Hg9 mi
3:00 AM49 °FPassing clouds.1 mph91%29.98 "Hg12 mi
2:00 AM49 °FPassing clouds.1 mph93%29.99 "Hg15 mi
1:00 AM50 °FOvercast.1 mph89%29.98 "Hg19 mi
11:00 PM
Thu, Sep 3
54 °FOvercast.1 mph91%29.96 "Hg7 mi
10:00 PM54 °FOvercast.2 mph89%29.97 "Hg12 mi
9:00 PM54 °FOvercast.1 mph90%29.96 "Hg14 mi
8:00 PM56 °FOvercast.1 mph84%29.93 "Hg18 mi
7:00 PM58 °FOvercast.2 mph78%29.93 "Hg22 mi
6:00 PM58 °FOvercast.3 mph82%29.93 "Hg14 mi
5:00 PM59 °FOvercast.2 mph78%29.91 "Hg25 mi
4:00 PM57 °FOvercast.2 mph84%29.93 "Hg25 mi
3:00 PM56 °FLight rain. Low clouds.2 mph90%29.95 "Hg8 mi
2:00 PM57 °FOvercast.2 mph87%29.94 "Hg11 mi
1:00 PM57 °FDrizzle. Overcast.2 mph89%29.95 "Hg7 mi
12:00 PM56 °FLight rain. Low clouds.2 mph91%29.96 "Hg8 mi
10:00 AM55 °FDrizzle. Overcast.1 mph90%29.96 "Hg11 mi
9:00 AM55 °FOvercast.1 mph88%29.97 "Hg12 mi
8:00 AM54 °FOvercast.3 mph89%29.96 "Hg10 mi
7:00 AM52 °FOvercast.2 mph91%29.97 "Hg11 mi
Weather by CustomWeather, © 2015

See weather overviewHow to use our weather pages